Location: Audrecelles
(50.8240°N, 1.5923°E)
Time: 03:19:35
(UTC+00:00)

Cosmos 44 - Pass Details

Date: 19 October 2025
Orbit: 576 x 774 km, 65.1° (Epoch: 13 November)

Event Time Altitude Azimuth Distance (km) Brightness Sun altitude
Exits shadow 01:42:23 12° 37° (NE) 2,042 6.3 -41.9°
Drops below altitude 10° 01:43:10 10° 45° (NE) 2,210 6.5 -41.9°
Sets 01:46:32 0° 67° (ENE) 3,170 7.4 -41.5°
